Погода в Кирове

Погода в Кирове : погода сейчас, прогноз погоды и архив. Всё, что Вы хотите узнать о погоде в Кирове!

Хотите узнать прогноз погоды в Кирове? Тогда Вам сюда: Погода в Кирове

Поиск расширенной информации на нашем сайте:

Другие новости

Новости СМИ2

Главная страница сайта

Новости сайта

03.07.2017

Напоминаем, что на нашем специализированном сайте Метеоцентр.Азия вы можете получить высокодетализированные автоматические прогнозы погоды по пунктам России, СНГ и мира в авиационном формате (включающие направление и скорость ветра, видимость, явления погоды, количество и форму облачности, нижнюю и верхнюю границу облачности).


Погода в Кирове - сегодня

Время (UTC), дата Ветер
(°,м/с) 
Видим.   Явления Облачность Т
(°С)
Тd
(°С)
f(%) Тe
(°С)
Pmin
(гПа)
dP
(гПа)
Po
(мм)
O2
(г/м3)
Тmin Tmax R s Состояние
почвы
03 15.04.18 270 (З) 3-6{07}  20000 м    10/0 средняя, верхняя 
[Ac lent|Cc]
+2 -5.2 59 +1  1017.9  -1.9  749  300  +1.9      мокрый или
старый снег
50-90% 
18 15.04.18 330 (СЗ) 1-3{06}  20000 м    ясно 
+5.2 -5.3 47 +6  1016.5  1.9  748  296           
21 15.04.18 360 (С) 2-6{07}  20000 м    ясно 
+3.2 -5.5 53 +3  1017.9  1.2  749  299           
03 16.04.18 330 (СЗ) 1-2{02}  20000 м    9/0 средняя, верхняя 
[Ac lent|Ci]
-1.6 -6.1 71 -1  1020.1  0.9  750  305  -1.7      мокрый или
старый снег
50-90% 
15 16.04.18 260 (З) 1-1{05}  20000 м    9/0 средняя, верхняя 
[Ac lent|Ci fib]
+5.4 -5.8 44 +6  1017.5  -1.1  748  296    +6.6       
00 17.04.18 070 (В) 1-2{02}  20000 м    ясно 
-1.3 -6.4 68 -1  1018.5  0.2  749  304           
03 17.04.18 090 (В) 1-2{02}  20000 м    8/0 средняя, верхняя 
[Ac trans|Ci]
-1.8 -6.4 71 -1  1018.9  0.3  749  305  -3.6      мокрый или
старый снег
50-90% 
15 17.04.18 310 (СЗ) 1-2{04}  20000 м    9/0 средняя, верхняя 
[Ac trans|Ci fib]
+8.7 -8.6 28 +10  1018.3  0.1  749  293    +9.4       
18 17.04.18 090 (В) 2-2{04}  20000 м    ясно 
+3.8 -6.7 46 +3  1019.2  0.6  750  299           
21 17.04.18 090 (В) 2-3{04}  20000 м    ясно 
+1.4 -9.2 45 +1  1019.9  0.6  750  302           
00 18.04.18 100 (В) 2-4{04}  20000 м    ясно 
-0.4 -6.9 61 -1  1020.4  0.3  750  303           
03 18.04.18 110 (В) 2-4{04}  20000 м    3/0 верхняя 
[Ci fib]
-0.3 -5.2 69 -1  1020.7  0.3  751  303  -1.1      мокрый или
старый снег
10-40% 
15 18.04.18 120 (ЮВ) 2-4{06}  20000 м    1/0 верхняя 
[Ci fib]
+9.2 -5.4 35 +9  1016  -1.6  748  292    +10.5       
18 18.04.18 110 (В) 2-3{04}  20000 м    ясно 
+4.8 -5.1 49 +4  1015.2  -1.1  747  296           
21 18.04.18 100 (В) 2-3{03}  20000 м    ясно 
+2.8 -5.3 55 +2  1013.7  -1.6  746  298           
00 19.04.18 100 (В) 2-3{04}  20000 м    ясно 
+0.4 -5 67 1012.1  -1.7  744  300           
03 19.04.18 080 (В) 2-3{03}  20000 м    ясно 
+1.4 -3.4 70 +1  1010.2  -1.8  743  298  -1.1      мокрый или
старый снег
10-40% 
15 19.04.18 310 (СЗ) 1-1{04}  20000 м    6/1 600 м средняя, верхняя 
[Sc|Ac trans|Ci fib]
+12.8 -0.9 39 +14  1004.8  -1  740  285    +13.7       
18 19.04.18 340 (С) 3-7{07}  20000 м    ясно 
+7.4 -0 59 +7  1005.2  0.1  740  290           
21 19.04.18 350 (С) 2-4{09}  20000 м    ясно 
+4.8 -2.9 57 +4  1006.2  0.8  740  293           
03 20.04.18 350 (С) 5-9{11}  20000 м    8/5 600 м кучево-дожд., средняя 
[Cb calv|Ac trans]
+0.9 -4.4 68 -2  1008.1  1.5  741  298  +0.8      мокрый или
старый снег
10-40% 
15 20.04.18 340 (С) 3-7{10}  20000 м    6/4 600 м средняя 
[Sc|Ac trans]
+1.9 -9.4 43 1011.3  0.2  744  299    +3.1       
03 21.04.18 080 (В) 1-2{02}  20000 м    6/0 средняя, верхняя 
[Ac As|Ci fib]
-2.1   1010.5  -0.8  743    -5.1      мокрый или
старый снег
10-40% 
15 21.04.18 150 (ЮВ) 4-8{09}  20000 м    10/4 600 м средняя 
[Sc|As op]
+1.2 -8.1 50 -1  1000.6  -2.4  736  296    +3.6       
03 22.04.18 070 (В) 5-10{12}  0500 м  сильн. снег  10/10 300 м 
[Frnb|Ns]
-2.1 -2.4 98 -5  984.8  -2.5  724  294  -2.2    31  19  равномерный
сухой снег
100% 
Время (UTC), дата Ветер
(°,м/с) 
Видим.   Явления Облачность Т
(°С)
Тd
(°С)
f(%) Тe
(°С)
Pmin
(гПа)
dP
(гПа)
Po
(мм)
O2
(г/м3)
Тmin Tmax R s Состояние
почвы

Для получения пояснительной информации подведите курсор к названию столбца.

ПОГОДА в Кирове - архив

Всё, что Вы хотите узнать о погоде в Кирове - удобно и подробно!

Выберите нужную дату (начиная с 1 января 2015* года) и нажмите кнопку "Найти".
Будут отображены архивные сводки погоды по пункту Киров, начиная с указанной даты.


Отображать данные в формате CSV (для использования в таблицах Excel)


Внимание! Наш архив погоды предназначен исключительно для личного некоммерческого использования в познавательных целях. Если Вам необходимы официальные справки о состоянии погоды (для производственных, юридических, коммерческих и т.п. целей), обращайтесь в органы Росгидромета.

*Примечание: данная дата относится к архиву по метеостанциям СССР (Россия, СНГ, Балтия).
Архив по метеостанциям Зарубежной Европы и Азии (кроме Китая) хранится 10 дней, по другим регионам земного шара (Китай, Африка, Америка, Австралия, Океания) - 1 день.

Киров - район местоположения метеостанции


Название, широта, долгота, высота метеостанции:
Киров 58.6°ш. 49.6°д. 158 м над ур. моря [Российская Федерация]

Дополнительная информация

В oтличие oт бoльшинства пoгoдных сайтoв мы публикуем пoдрoбную метеoинфoрмацию в детальнoм прoфессиoнальнoм фoрмате.

Характеристики температуры и влажнoсти вoздуха измеряются на высoте 2 м в тени вдали oт зданий и деревьев.
Скoрoсть ветра измеряется на высoте 10 м (на урoвне рoста челoвека скoрoсть ветра ниже в 1.5-2 раза). Если метеoстанция нахoдится в гoрoде или в лесу, тo скoрoсть ветра занижена на 2-4 м/с пo сравнению с oткрытым местoм. Скoрoсть ветра над акватoриями крупных рек и oзёр, а также на вершинах хoлмoв на 2-5 м/с выше, чем в oбычных услoвиях.
Атмoсфернoе давление в разных тoчках местнoсти мoжет значительнo oтличаться oт давления на метеoстанции, в зависимoсти oт услoвий рельефа (при пoдъёме на 10 м давление пoнижается примернo на 1 мм рт.ст.).